sat.trackr.live / text

‹ back to catalog

STARLINK-1446

NORAD 45663 · 2020-035G

PAYLOAD ACTIVE UNKNOWN

§ Identity

Operator
Country
US
Launch date
2020-06-04
Launch site
AFETR
Launch vehicle
Mass (kg)
RCS (m²)

Purposes: comms

External: N2YO · Heavens-Above · Gunter

§ Orbital elements

Epoch: 2026-05-25T02:14:09.223584Z

Period
93.11 min
Inclination
53.0234°
Eccentricity
0.0004097
Mean motion
15.46549028 rev/d
Perigee alt
424.0 km
Apogee alt
429.6 km
Semi-major
6,805.0 km
B*
3.8845e-4
RAAN
355.4491°
Arg perigee
129.9048°
Mean anomaly
230.2319°
Rev number
33,148

§ Raw data

STARLINK-14461 45663U 20035G   26145.09316231  .00019243  00000+0  38845-3 0  99962 45663  53.0234 355.4491 0004097 129.9048 230.2319 15.46549028331480

JSON: /api/v1/satellites/45663 · /tle

For live sub-satellite position, see the globe view (requires WebGL).

§ Visibility from observer

Set your observer location to see the next 7 days of passes ≥ 10°. The values pass through the URL so the page stays shareable.

No JS? Fill the form by hand. The geolocation button needs JavaScript.